GW4469 Weather Reports


time (UTC)temp
C
wind
direction
speed
KPH
gust
KPH
rain 1hr
cm
rain 24hr
cm
rain mn
cm
humidity
%
barometer
mb
20260502152317 20 85 6.4 6.4 0.00 0.00 0.00 19 1020.7
20260502151814 20 77 1.6 8.0 0.00 0.00 0.00 19 1020.6
20260502151311 20 27 6.4 9.7 0.00 0.00 0.00 20 1020.5
20260502150809 20 53 8.0 8.0 0.00 0.00 0.00 20 1020.4
20260502150305 19 90 9.7 9.7 0.00 0.00 0.00 20 1020.5
20260502130653 10 306 0.0 0.0 0.00 0.00 0.00 31 1019.8
20260502130151 10 261 0.0 0.0 0.00 0.00 0.00 31 1019.7
20260502123636 10 105 0.0 0.0 0.00 0.00 0.00 30 1019.4
20260502123133 10 105 0.0 0.0 0.00 0.00 0.00 29 1019.4
20260502122630 10 105 0.0 1.6 0.00 0.00 0.00 28 1019.3
20260502122126 11 180 0.0 1.6 0.00 0.00 0.00 27 1019.3
20260502121625 11 286 0.0 1.6 0.00 0.00 0.00 26 1019.2
20260502121121 12 119 3.2 4.8 0.00 0.00 0.00 27 1019.2
20260502120618 13 282 0.0 1.6 0.00 0.00 0.00 25 1019.3
20260502120115 13 102 3.2 3.2 0.00 0.00 0.00 26 1019.3
20260502115613 12 295 3.2 3.2 0.00 0.00 0.00 27 1019.1
20260502115108 11 285 0.0 1.6 0.00 0.00 0.00 29 1019.3
20260502114605 10 325 0.0 1.6 0.00 0.00 0.00 29 1019.2
20260502114102 10 8 0.0 1.6 0.00 0.00 0.00 28 1019.2
20260502113559 11 289 0.0 1.6 0.00 0.00 0.00 26 1019.1
20260502113058 11 261 0.0 0.0 0.00 0.00 0.00 26 1019.4
20260502112555 12 261 0.0 3.2 0.00 0.00 0.00 25 1019.5
20260502112053 12 291 0.0 3.2 0.00 0.00 0.00 26 1019.2
20260502111550 12 342 0.0 0.0 0.00 0.00 0.00 25 1019.2
20260502111047 12 326 0.0 4.8 0.00 0.00 0.00 25 1019.3
20260502110544 12 306 0.0 1.6 0.00 0.00 0.00 25 1019.4
20260502110042 12 297 0.0 3.2 0.00 0.00 0.00 24 1019.2
20260502105539 12 305 3.2 3.2 0.00 0.00 0.00 24 1019.4
20260502105037 12 279 0.0 3.2 0.00 0.00 0.00 24 1019.3
20260502104533 12 306 0.0 3.2 0.00 0.00 0.00 23 1019.2
20260502104031 12 300 0.0 0.0 0.00 0.00 0.00 23 1019.2
20260502103529 13 297 1.6 3.2 0.00 0.00 0.00 23 1019.2
20260502103027 13 81 0.0 1.6 0.00 0.00 0.00 23 1019.1
20260502102523 13 0 0.0 1.6 0.00 0.00 0.00 22 1019.4
20260502102020 13 337 1.6 1.6 0.00 0.00 0.00 22 1019.4
20260502101518 14 81 0.0 1.6 0.00 0.00 0.00 21 1019.5
20260502101016 15 351 0.0 4.8 0.00 0.00 0.00 21 1019.2
20260502100514 15 290 4.8 4.8 0.00 0.00 0.00 21 1019.4
20260502091449 11 301 3.2 6.4 0.00 0.00 0.00 25 1019.4
20260502090946 10 74 0.0 3.2 0.00 0.00 0.00 26 1019.4
20260502090443 10 292 4.8 4.8 0.00 0.00 0.00 26 1019.2
20260502071337 11 285 0.0 1.6 0.00 0.00 0.00 27 1019.5
20260502070835 11 285 0.0 3.2 0.00 0.00 0.00 26 1019.5
20260502070333 11 279 0.0 0.0 0.00 0.00 0.00 25 1019.5
20260502065832 11 270 1.6 1.6 0.00 0.00 0.00 25 1019.5
20260502065329 11 286 1.6 1.6 0.00 0.00 0.00 26 1019.4
20260502064827 11 285 1.6 3.2 0.00 0.00 0.00 26 1019.4
20260502064325 11 279 0.0 3.2 0.00 0.00 0.00 25 1019.4
20260502063822 11 286 1.6 1.6 0.00 0.00 0.00 25 1019.3
20260502063320 11 270 0.0 3.2 0.00 0.00 0.00 24 1019.3
20260502062816 12 285 1.6 1.6 0.00 0.00 0.00 24 1019.2
20260502062314 12 289 0.0 1.6 0.00 0.00 0.00 25 1019.3
20260502061813 12 8 0.0 0.0 0.00 0.00 0.00 24 1019.4
20260502061310 12 8 0.0 1.6 0.00 0.00 0.00 25 1019.3
20260502060805 12 270 0.0 1.6 0.00 0.00 0.00 23 1019.1
20260502060301 12 277 0.0 3.2 0.00 0.00 0.00 23 1019.0
20260502055759 12 286 0.0 3.2 0.00 0.00 0.00 23 1018.8
20260502055256 13 262 0.0 3.2 0.00 0.00 0.00 22 1018.8
20260502054755 13 270 1.6 1.6 0.00 0.00 0.00 22 1018.7
20260502054253 13 270 1.6 1.6 0.00 0.00 0.00 21 1018.6
20260502053750 13 270 0.0 1.6 0.00 0.00 0.00 21 1018.7
20260502053247 14 270 0.0 0.0 0.00 0.00 0.00 20 1018.7
20260502052745 15 270 0.0 0.0 0.00 0.00 0.00 19 1018.6
20260502052243 15 270 0.0 1.6 0.00 0.00 0.00 20 1018.7
20260502051740 15 325 0.0 3.2 0.00 0.00 0.00 19 1018.7
20260502051239 15 345 0.0 1.6 0.00 0.00 0.00 18 1018.7
20260502050735 16 0 0.0 0.0 0.00 0.00 0.00 18 1018.6
20260502050231 16 99 0.0 1.6 0.00 0.00 0.00 18 1018.6
20260502045728 16 103 1.6 3.2 0.00 0.00 0.00 18 1018.5
20260502045225 16 74 1.6 1.6 0.00 0.00 0.00 18 1018.5
20260502044722 17 81 0.0 0.0 0.00 0.00 0.00 17 1018.4
20260502044218 17 90 1.6 3.2 0.00 0.00 0.00 17 1018.4
20260502043716 17 327 0.0 3.2 0.00 0.00 0.00 17 1018.2
20260502043213 18 338 0.0 4.8 0.00 0.00 0.00 17 1018.3
20260502042712 18 337 0.0 4.8 0.00 0.00 0.00 16 1018.2
20260502042210 18 309 3.2 3.2 0.00 0.00 0.00 16 1018.5
20260502041708 18 308 3.2 4.8 0.00 0.00 0.00 16 1018.2
20260502041204 18 0 0.0 1.6 0.00 0.00 0.00 16 1018.3
20260502040701 18 300 0.0 1.6 0.00 0.00 0.00 17 1018.1
20260502040158 18 286 0.0 1.6 0.00 0.00 0.00 16 1018.0
20260502035655 18 0 0.0 3.2 0.00 0.00 0.00 16 1017.8
20260502035152 18 285 1.6 3.2 0.00 0.00 0.00 16 1017.6
20260502034649 19 0 0.0 4.8 0.00 0.00 0.00 16 1017.6
20260502034147 19 294 0.0 4.8 0.00 0.00 0.00 16 1017.7
20260502033645 20 353 0.0 3.2 0.00 0.00 0.00 16 1017.6
20260502033143 20 292 3.2 3.2 0.00 0.00 0.00 16 1017.5
20260502032639 20 331 0.0 3.2 0.00 0.00 0.00 16 1017.3
20260502032135 20 37 3.2 6.4 0.00 0.00 0.00 15 1017.3
20260502031633 20 300 3.2 6.4 0.00 0.00 0.00 15 1017.4
20260502031131 20 350 0.0 6.4 0.00 0.00 0.00 15 1017.6
20260502030629 20 278 0.0 4.8 0.00 0.00 0.00 15 1017.2
20260502030127 21 270 1.6 4.8 0.00 0.00 0.00 15 1017.0
20260502025624 21 5 0.0 4.8 0.00 0.00 0.00 15 1017.3
20260502025122 21 8 0.0 4.8 0.00 0.00 0.00 14 1017.3
20260502024620 21 0 1.6 3.2 0.00 0.00 0.00 14 1017.2
20260502024117 21 286 1.6 6.4 0.00 0.00 0.00 14 1016.9
20260502023615 21 337 3.2 6.4 0.00 0.00 0.00 14 1017.0
20260502023112 22 276 1.6 8.0 0.00 0.00 0.00 14 1017.2
20260502022609 22 340 4.8 8.0 0.00 0.00 0.00 14 1017.1
20260502022106 22 324 6.4 6.4 0.00 0.00 0.00 14 1016.9
20260502021603 22 85 0.0 6.4 0.00 0.00 0.00 14 1017.0
20260502021100 22 326 3.2 11.3 0.00 0.00 0.00 14 1017.1
20260502020557 22 3 4.8 14.5 0.00 0.00 0.00 14 1017.2
20260502020054 23 32 3.2 9.7 0.00 0.00 0.00 14 1017.0
20260502015552 23 90 3.2 12.9 0.00 0.00 0.00 14 1016.7
20260502015048 23 357 12.9 17.7 0.00 0.00 0.00 14 1016.6
20260502014545 23 54 9.7 9.7 0.00 0.00 0.00 14 1016.7
20260502014043 24 3 11.3 17.7 0.00 0.00 0.00 14 1016.9
20260502013538 25 357 4.8 14.5 0.00 0.00 0.00 13 1016.7
20260502013034 25 352 8.0 14.5 0.00 0.00 0.00 13 1016.7
20260502012532 26 81 6.4 14.5 0.00 0.00 0.00 13 1016.7
20260502012029 26 55 3.2 12.9 0.00 0.00 0.00 13 1016.7
20260502011526 25 17 6.4 17.7 0.00 0.00 0.00 13 1016.5
20260502011022 25 63 4.8 11.3 0.00 0.00 0.00 13 1016.4
20260502010520 25 8 3.2 11.3 0.00 0.00 0.00 13 1016.7
20260502010016 25 90 4.8 19.3 0.00 0.00 0.00 13 1016.3
20260502005514 26 338 3.2 14.5 0.00 0.00 0.00 14 1016.5
20260502005012 26 314 6.4 19.3 0.00 0.00 0.00 14 1016.6
20260502004507 26 92 9.7 14.5 0.00 0.00 0.00 14 1016.4
20260502004004 26 32 3.2 16.1 0.00 0.00 0.00 14 1016.5
20260502003502 26 53 4.8 14.5 0.00 0.00 0.00 14 1016.4
20260502002957 26 315 4.8 17.7 0.00 0.00 0.00 14 1016.3
20260502002455 26 275 6.4 20.9 0.00 0.00 0.00 14 1016.4
20260502001952 26 322 6.4 17.7 0.00 0.00 0.00 13 1016.3
20260502001449 26 290 11.3 19.3 0.00 0.00 0.00 14 1016.1
20260502000948 27 311 0.0 12.9 0.00 0.00 0.00 14 1016.2
20260502000447 27 86 3.2 12.9 0.00 0.00 0.00 14 1016.2
20260501235941 27 351 6.4 20.9 0.00 0.00 0.00 14 1016.3
20260501235437 27 26 6.4 19.3 0.00 0.00 0.00 14 1016.1
20260501234932 27 24 12.9 24.1 0.00 0.00 0.00 14 1016.3
20260501234429 27 21 3.2 16.1 0.00 0.00 0.00 14 1016.2
20260501233928 27 4 3.2 20.9 0.00 0.00 0.00 14 1016.0
20260501233425 27 18 3.2 12.9 0.00 0.00 0.00 14 1016.1
20260501232921 27 297 9.7 16.1 0.00 0.00 0.00 14 1015.9
20260501232418 27 86 8.0 12.9 0.00 0.00 0.00 14 1015.9
20260501231915 27 12 11.3 12.9 0.00 0.00 0.00 14 1015.9
20260501231414 27 334 9.7 14.5 0.00 0.00 0.00 14 1016.0
20260501230912 27 59 4.8 22.5 0.00 0.00 0.00 14 1016.1
20260501230410 27 274 4.8 17.7 0.00 0.00 0.00 14 1016.0
20260501225907 27 49 3.2 16.1 0.00 0.00 0.00 14 1015.9
20260501225405 28 81 8.0 19.3 0.00 0.00 0.00 14 1016.2
20260501224900 27 326 3.2 27.4 0.00 0.00 0.00 14 1016.0
20260501224358 27 0 14.5 16.1 0.00 0.00 0.00 14 1016.4
20260501223854 27 281 8.0 12.9 0.00 0.00 0.00 14 1016.2
20260501223350 27 333 14.5 19.3 0.00 0.00 0.00 14 1015.9
20260501222846 27 40 3.2 20.9 0.00 0.00 0.00 14 1016.1
20260501222344 27 258 4.8 9.7 0.00 0.00 0.00 14 1016.3
20260501221840 27 273 12.9 25.7 0.00 0.00 0.00 14 1016.3
20260501221338 27 281 9.7 17.7 0.00 0.00 0.00 15 1016.2
20260501220836 27 310 11.3 19.3 0.00 0.00 0.00 14 1016.5
20260501220333 27 355 4.8 8.0 0.00 0.00 0.00 15 1016.2
20260501215829 26 326 3.2 14.5 0.00 0.00 0.00 15 1016.4
20260501215326 26 16 4.8 14.5 0.00 0.00 0.00 15 1016.5
20260501214821 27 262 0.0 12.9 0.00 0.00 0.00 14 1016.4
20260501214317 27 280 6.4 14.5 0.00 0.00 0.00 14 1016.6
20260501213813 27 266 8.0 14.5 0.00 0.00 0.00 15 1017.0
20260501213309 27 285 4.8 4.8 0.00 0.00 0.00 14 1016.7
20260501212805 27 330 6.4 19.3 0.00 0.00 0.00 15 1016.9
20260501212305 27 299 9.7 24.1 0.00 0.00 0.00 14 1017.0
20260501211759 27 73 11.3 16.1 0.00 0.00 0.00 15 1016.9
20260501211256 26 301 4.8 9.7 0.00 0.00 0.00 16 1017.0
20260501210753 26 312 0.0 9.7 0.00 0.00 0.00 15 1017.2
20260501210250 27 279 8.0 14.5 0.00 0.00 0.00 14 1017.2
20260501205746 27 261 9.7 9.7 0.00 0.00 0.00 14 1017.3
20260501205243 27 0 0.0 6.4 0.00 0.00 0.00 14 1016.9
20260501204740 27 270 3.2 8.0 0.00 0.00 0.00 14 1017.2
20260501204237 28 45 0.0 9.7 0.00 0.00 0.00 13 1017.1
20260501203733 28 306 1.6 17.7 0.00 0.00 0.00 13 1017.0
20260501203231 27 290 3.2 11.3 0.00 0.00 0.00 14 1017.2
20260501202727 27 341 6.4 14.5 0.00 0.00 0.00 14 1017.5
20260501202224 27 348 3.2 9.7 0.00 0.00 0.00 13 1017.1
20260501201721 28 81 4.8 16.1 0.00 0.00 0.00 13 1017.1
20260501201218 27 132 3.2 4.8 0.00 0.00 0.00 15 1017.2
20260501200715 27 329 8.0 12.9 0.00 0.00 0.00 14 1017.5
20260501200212 27 274 16.1 16.1 0.00 0.00 0.00 14 1017.2
20260501195709 27 67 0.0 9.7 0.00 0.00 0.00 13 1017.2
20260501195205 27 338 9.7 19.3 0.00 0.00 0.00 14 1017.3
20260501194701 27 105 1.6 14.5 0.00 0.00 0.00 14 1017.4
20260501194156 27 40 4.8 12.9 0.00 0.00 0.00 14 1017.6
20260501193654 26 110 8.0 12.9 0.00 0.00 0.00 15 1017.6
20260501193152 26 79 6.4 17.7 0.00 0.00 0.00 14 1017.7
20260501192649 26 24 3.2 14.5 0.00 0.00 0.00 15 1017.4
20260501192146 26 58 4.8 16.1 0.00 0.00 0.00 14 1017.7
20260501191643 26 35 9.7 19.3 0.00 0.00 0.00 15 1017.8
20260501191141 26 100 6.4 8.0 0.00 0.00 0.00 16 1017.7
20260501190637 26 32 4.8 9.7 0.00 0.00 0.00 15 1017.7
20260501190137 26 10 3.2 16.1 0.00 0.00 0.00 14 1018.0
20260501185629 26 45 0.0 11.3 0.00 0.00 0.00 14 1018.0
20260501185124 26 3 8.0 8.0 0.00 0.00 0.00 15 1018.3
20260501184621 26 37 8.0 11.3 0.00 0.00 0.00 15 1018.3
20260501184121 26 57 4.8 6.4 0.00 0.00 0.00 14 1018.0
20260501183618 26 270 1.6 9.7 0.00 0.00 0.00 14 1018.2
20260501183114 26 346 14.5 16.1 0.00 0.00 0.00 14 1018.2
20260501182611 26 13 0.0 4.8 0.00 0.00 0.00 15 1018.2
20260501182108 26 103 0.0 17.7 0.00 0.00 0.00 15 1018.5
20260501181605 25 11 4.8 11.3 0.00 0.00 0.00 15 1018.4
20260501181102 25 75 6.4 14.5 0.00 0.00 0.00 15 1018.3
20260501180600 26 74 3.2 8.0 0.00 0.00 0.00 15 1018.6
20260501180055 25 292 3.2 8.0 0.00 0.00 0.00 15 1018.5
20260501175553 26 274 9.7 9.7 0.00 0.00 0.00 15 1018.4
20260501175049 25 83 0.0 6.4 0.00 0.00 0.00 16 1018.3
20260501174546 25 220 4.8 9.7 0.00 0.00 0.00 15 1018.3
20260501174044 25 350 8.0 11.3 0.00 0.00 0.00 15 1018.5
20260501173541 25 313 0.0 8.0 0.00 0.00 0.00 16 1018.6
20260501173038 25 52 3.2 8.0 0.00 0.00 0.00 16 1018.4
20260501172533 25 352 4.8 11.3 0.00 0.00 0.00 16 1018.4
20260501172029 24 54 8.0 11.3 0.00 0.00 0.00 16 1018.5
20260501171525 25 78 3.2 9.7 0.00 0.00 0.00 16 1018.4
20260501171022 25 57 0.0 8.0 0.00 0.00 0.00 16 1018.4
20260501170519 24 144 0.0 9.7 0.00 0.00 0.00 16 1018.5
20260501170016 24 355 3.2 4.8 0.00 0.00 0.00 16 1018.5
20260501165514 24 75 4.8 11.3 0.00 0.00 0.00 16 1018.4
20260501165011 23 47 4.8 11.3 0.00 0.00 0.00 17 1018.7
20260501164509 23 54 0.0 6.4 0.00 0.00 0.00 17 1018.5
20260501164005 23 40 0.0 9.7 0.00 0.00 0.00 17 1018.4
20260501163502 23 47 4.8 6.4 0.00 0.00 0.00 17 1018.5
20260501162958 23 30 4.8 12.9 0.00 0.00 0.00 17 1018.4
20260501162455 22 355 3.2 4.8 0.00 0.00 0.00 18 1018.2
20260501161952 22 80 11.3 11.3 0.00 0.00 0.00 18 1018.3
20260501161449 21 36 4.8 9.7 0.00 0.00 0.00 18 1018.4
20260501160945 21 84 8.0 9.7 0.00 0.00 0.00 18 1018.2
20260501160442 22 93 6.4 9.7 0.00 0.00 0.00 17 1018.3
20260501155940 22 48 0.0 8.0 0.00 0.00 0.00 18 1018.1
20260501155436 22 28 6.4 11.3 0.00 0.00 0.00 18 1018.3
20260501154933 21 121 3.2 9.7 0.00 0.00 0.00 18 1018.3
20260501154431 21 172 0.0 4.8 0.00 0.00 0.00 19 1018.1
20260501153927 21 38 8.0 11.3 0.00 0.00 0.00 18 1018.0